Regional Weather Roundup
Issued by NWS

Home | Current Version | Previous Version | Text Only | Print | Product List | Glossary On
Versions: 1 2 3 4 5 6 7 8 9 10 11 12 13 14 15 16 17 18 19 20 21 22 23 24 25 26 27 28 29 30 31 32 33 34 35 36 37 38 39 40 41 42 43 44 45 46 47 48 49 50
000
ASUS44 KFWD 290715
RWRTX
NORTH TEXAS HOURLY WEATHER ROUNDUP
NATIONAL WEATHER SERVICE FORT WORTH TX
200 AM CDT SAT AUG 29 2015

NOTE: "FAIR" INDICATES FEW OR NO CLOUDS BELOW 12,000 FEET WITH NO
SIGNIFICANT WEATHER AND/OR OBSTRUCTIONS TO VISIBILITY.

TXZ118-119-290800-
DALLAS/FORT WORTH METROPLEX

CITY           SKY/WX    TMP DP  RH WIND       PRES   REMARKS
DFW AIRPORT    CLOUDY    83  62  49 S10       29.97F
DALLAS LOVE    CLOUDY    83  64  52 SE7G18    29.97F
FTW MEACHAM    CLOUDY    83  63  50 S10       29.97F
DAL-EXECUTIVE  CLOUDY    80  64  58 S7        29.98F
FTW-ALLIANCE   CLOUDY    82  63  52 S8        29.97F
FTW-NAS-JRB    CLOUDY    83  63  50 S8          N/A
FTW-SPINKS     CLOUDY    79  63  58 S6        30.00S
ARLINGTON      CLOUDY    82  62  50 SE8       29.98F
GRAND PRAIRIE  CLOUDY    81  65  59 SE7       29.99F
ADDISON        CLOUDY    82  65  55 SE8       30.00S
MESQUITE       CLOUDY    76  64  65 SE3       29.99S
LANCASTER      CLOUDY    78  63  58 SE5       29.99F
$$

TXZ091>094-102>105-117-120-121-131>134-290800-
NORTH CENTRAL TEXAS

CITY           SKY/WX    TMP DP  RH WIND       PRES   REMARKS
SHRMAN/DENISON CLOUDY    81  66  59 SE10      29.98F
GAINESVILLE    CLOUDY    80  65  61 SE9       29.99F
BOWIE          CLOUDY    79  64  59 SE6       29.99R
BRIDGEPORT     CLOUDY    82  64  54 SE5       30.01R
DECATUR        CLOUDY    81  61  51 S8        30.00R
DENTON         CLOUDY    82  63  52 SE12      29.97S
MCKINNEY       CLOUDY    80  64  58 SE10      29.98F
GREENVILLE     MOCLDY    73  63  68 SE5       30.00S
ROCKWALL       CLOUDY    78  64  61 SE3       29.98S
TERRELL        MOCLDY    76  65  68 CALM      29.99S
WAXAHACHIE     CLOUDY    77  65  66 S5        30.00F
CLEBURNE         N/A     79  64  61 SE6       30.01S
GRANBURY       CLOUDY    81  63  54 SE3       29.99F
$$

TXZ083>090-098>101-113>116-127>130-139>142-154-155-290800-
WESTERN NORTH TEXAS

CITY           SKY/WX    TMP DP  RH WIND       PRES   REMARKS
WICHITA FALLS  MOCLDY    82  61  48 S13       29.96S
WF-KICKAPOO    MOCLDY    83  61  47 S12       29.97S
VERNON         CLOUDY    78  61  55 SE3       29.98S
ABILENE        MOCLDY    79  55  43 S13       30.01R
ABILENE-DYESS  MOCLDY    79  56  46 S8        30.00R
BRECKENRIDGE   MOCLDY    83  56  39 S10       29.99R
GRAHAM         CLOUDY    82  61  49 SE8       29.98S
MINERAL WELLS  CLOUDY    77  64  64 S5        29.98S
STEPHENVILLE   MOCLDY    76  61  58 S5        30.04S
COMANCHE       PTCLDY    76  58  54 S6        30.02S
BROWNWOOD      CLOUDY    77  57  50 SE6       30.02R
COLEMAN        MOCLDY    78  58  50 S5        30.03S
BRADY          CLEAR     81  55  41 S6        30.03R
$$

TXZ143>147-156>162-174-175-290800-
CENTRAL TEXAS

CITY           SKY/WX    TMP DP  RH WIND       PRES   REMARKS
WACO           CLEAR     79  65  62 S10       29.99S
WACO-MCGREGOR  CLEAR     77  64  64 S8        29.99F
HILLSBORO      MOCLDY    78  61  54 SE9       29.99F
CORSICANA      CLOUDY    77  66  68 S6        30.00F
MEXIA          MOCLDY    76  65  68 SE6       29.99S
HEARNE         CLEAR     74  67  76 SE6       30.01S
CAMERON        CLEAR     77  66  69 S12       30.00R
TEMPLE         CLEAR     75  61  60 S9        30.02R
KILLEEN        CLEAR     76  63  63 S8        30.00F
KILLEEN-SKYLRK CLEAR     77  61  57 S8        29.99F
FORT HOOD      CLEAR     76  64  64 S7        30.00S
GATESVILLE     CLEAR     77  63  61 CALM      30.02F
HAMILTON       PTCLDY    75  61  61 MISG      30.02F
$$

TXZ095>097-106>112-122>126-135>138-148>153-164>167-290800-
EAST TEXAS

CITY           SKY/WX    TMP DP  RH WIND       PRES   REMARKS
PARIS          MOCLDY    73  57  56 SE9       30.00F
SULPHUR SPRNGS PTCLDY    73  63  70 SE3       30.02F
MOUNT PLEASANT CLOUDY    70  64  80 CALM      30.02S
GILMER         CLOUDY    71  66  83 CALM      30.01S
MINEOLA        PTCLDY    70  68  94 CALM      30.01S
TYLER          CLOUDY    76  63  64 SE7       30.00F
LONGVIEW       CLOUDY    73  64  73 S3        30.00S
MARSHALL       MOCLDY    72  69  88 CALM      30.02F
ATHENS         MOCLDY    72  64  78 CALM      29.98F
PALESTINE      CLOUDY    78  66  66 SE5       30.01F
JACKSONVILLE   CLOUDY    77  64  63 S6        30.03F
HENDERSON      CLOUDY    71  66  83 CALM      30.02F
CENTER         FAIR      68  65  90 CALM      30.01F
NACOGDOCHES    PTCLDY    66  64  94 CALM      30.01S
LUFKIN         CLEAR     69  64  84 CALM      30.01F
$$

SUPPLEMENTAL OBSERVATIONS (CENTRAL)

CITY           SKY/WX    TMP DP  RH WIND       PRES   REMARKS
LAKE TEXOMA      N/A     81  63  54 SE7         N/A
CADDO GRASSLND   N/A     77  63  61 S6          N/A
PAT MAYSE LAKE   N/A     77  59  53 SE12        N/A
GREENVILLE       N/A     73  63  68 SE2         N/A
CEDAR HILL       N/A     81  63  54 SE7         N/A
ATHENS           N/A     77  63  61 S3          N/A
MCGREGOR         N/A     75  63  64 S7          N/A
$$

SUPPLEMENTAL OBSERVATIONS (WEST)

CITY           SKY/WX    TMP DP  RH WIND       PRES   REMARKS
LBJ GRASSLAND    N/A    N/A N/A N/A S7          N/A
HAMBY            N/A     82  54  36 S13         N/A
$$

SUPPLEMENTAL OBSERVATIONS (EAST)

CITY           SKY/WX    TMP DP  RH WIND       PRES   REMARKS
TEXARKANA        N/A     66  64  94 CALM        N/A
LINDEN           N/A     70  63  78 CALM        N/A
CADDO LAKE       N/A    N/A N/A N/A CALM        N/A
HENDERSON        N/A     72  63  73 CALM        N/A
LUFKIN           N/A     68  63  83 MISG        N/A
N SABINE NF      N/A     66  61  82 MISG        N/A
$$

SUPPLEMENTAL OBSERVATIONS ARE A COLLECTION OF AUTOMATED INSTRUMENTS
THAT ARE MAINTAINED BY A VARIETY OF FEDERAL AND STATE AGENCIES.
CERTAIN ELEMENTS...SUCH AS HUMIDITY VALUES AND SUSTAINED WIND
SPEEDS...MAY BE APPROXIMATED.




USA.gov is the U.S. government's official web portal to all federal, state and local government web resources and services.